FW2343 Weather Reports


time (UTC)temp
F
wind
direction
speed
knots
gust
knots
rain 1hr
in
rain 24hr
in
rain mn
in
humidity
%
barometer
mb
20260505041212 52 194 2.6 4.3 0.00 0.31 0.01 92 1012.7
20260505040719 52 196 1.7 3.5 0.00 0.31 0.01 92 1012.7
20260505040216 52 194 1.7 3.5 0.00 0.31 0.01 92 1012.6
20260505035715 52 165 2.6 3.5 0.00 0.31 0.01 92 1012.6
20260505035217 52 177 1.7 3.5 0.01 0.31 0.01 92 1012.7
20260505034710 52 164 1.7 3.5 0.01 0.31 0.01 93 1012.7
20260505033718 52 174 0.9 3.5 0.01 0.31 0.01 93 1012.5
20260505033217 51 160 1.7 3.5 0.01 0.31 0.01 93 1012.5
20260505032717 51 206 0.9 3.5 0.01 0.31 0.01 93 1012.5
20260505032208 51 206 1.7 3.5 0.01 0.31 0.01 93 1012.5
20260505031717 51 222 0.9 2.6 0.01 0.31 0.01 94 1012.5
20260505030709 51 192 1.7 3.5 0.01 0.31 0.01 94 1012.5
20260505030207 51 199 1.7 3.5 0.01 0.31 0.01 94 1012.6
20260505025715 51 241 1.7 3.5 0.01 0.31 0.01 94 1012.6
20260505025206 51 230 1.7 1.7 0.00 0.30 0.00 94 1012.6
20260505024718 51 239 0.9 1.7 0.00 0.30 0.00 94 1012.6
20260505024218 51 278 0.9 1.7 0.00 0.30 0.00 94 1012.6
20260505023707 51 271 0.9 1.7 0.00 0.30 0.00 94 1012.6
20260505023215 51 205 0.9 2.6 0.00 0.30 0.00 94 1012.6
20260505022707 51 187 0.9 2.6 0.00 0.30 0.00 94 1012.6
20260505022215 51 192 0.9 3.5 0.00 0.30 0.00 94 1012.6
20260505021705 51 196 0.9 4.3 0.00 0.30 0.00 93 1012.7
20260505021207 51 188 1.7 4.3 0.00 0.30 0.00 93 1012.6
20260505020718 51 232 2.6 4.3 0.00 0.30 0.00 93 1012.7
20260505015717 51 167 0.0 2.6 0.00 0.30 0.00 93 1012.9
20260505015215 51 187 0.0 3.5 0.00 0.30 0.00 93 1012.8
20260505014705 51 180 1.7 3.5 0.00 0.30 0.00 92 1012.9
20260505013718 51 196 1.7 2.6 0.00 0.30 0.00 93 1012.8
20260505013207 51 225 0.0 3.5 0.00 0.30 0.00 93 1012.8
20260505012712 50 191 0.9 3.5 0.00 0.30 0.00 93 1012.8
20260505012211 51 210 1.7 3.5 0.00 0.30 0.00 93 1012.8
20260505011710 51 194 1.7 3.5 0.00 0.30 0.00 93 1012.8
20260505011210 51 234 0.0 3.5 0.00 0.30 0.00 93 1013.0
20260505010709 51 295 0.9 3.5 0.00 0.30 0.00 92 1012.9
20260505010206 51 213 0.0 2.6 0.00 0.30 0.00 92 1012.9
20260505005707 51 227 0.0 2.6 0.00 0.30 0.00 92 1013.0
20260505005216 51 0 0.0 0.9 0.00 0.30 0.00 92 1013.0
20260505004705 52 248 0.0 1.7 0.00 0.30 0.00 92 1013.0
20260505003710 52 274 0.0 1.7 0.00 0.30 0.00 92 1013.1
20260505002707 53 229 1.7 2.6 0.00 0.30 0.00 92 1013.3
20260505002209 53 265 1.7 2.6 0.00 0.30 0.00 92 1013.3
20260505001713 53 212 0.9 4.3 0.00 0.30 0.00 91 1013.2
20260505001216 53 223 1.7 4.3 0.00 0.30 0.00 91 1013.2
20260505000707 53 286 1.7 4.3 0.00 0.30 0.00 91 1013.2
20260505000206 53 288 0.9 1.7 0.00 0.30 0.00 91 1013.2
20260504235716 53 274 0.0 1.7 0.00 0.30 0.00 92 1013.2
20260504235219 53 60 0.0 0.0 0.00 0.30 0.00 92 1013.1
20260504234705 53 0 0.0 0.0 0.00 0.30 0.00 93 1013.1
20260504233716 53 0 0.0 0.0 0.00 0.30 0.00 93 1013.2
20260504233210 53 0 0.0 1.7 0.00 0.30 0.00 93 1013.1
20260504232710 53 0 0.0 1.7 0.00 0.30 0.00 93 1013.1
20260504232218 53 352 0.0 1.7 0.00 0.30 0.00 93 1013.1
20260504231709 53 12 0.0 1.7 0.00 0.30 0.00 93 1013.2
20260504231218 53 0 0.0 1.7 0.00 0.30 0.00 93 1013.1
20260504230715 53 225 0.0 0.9 0.00 0.30 0.00 92 1013.1
20260504230210 53 201 0.0 0.9 0.00 0.30 0.00 93 1013.2
20260504225711 53 11 0.0 1.7 0.00 0.30 0.00 93 1013.2
20260504225210 53 0 0.0 1.7 0.00 0.30 0.00 93 1013.2
20260504224212 53 0 0.0 0.0 0.00 0.30 0.00 92 1013.2
20260504223707 53 0 0.0 0.0 0.00 0.30 0.00 92 1013.0
20260504223207 53 0 0.0 0.9 0.01 0.30 0.00 92 1013.1
20260504221211 53 0 0.0 0.0 0.02 0.30 0.00 91 1013.2
20260504220715 54 0 0.0 0.9 0.02 0.30 0.00 91 1013.2
20260504220209 54 341 0.0 1.7 0.02 0.30 0.30 90 1013.3
20260504215205 54 355 0.9 0.0 0.02 0.30 0.30 89 1013.4
20260504214234 54 0 0.0 4.3 0.02 0.30 0.30 88 1013.6
20260504213709 54 233 0.9 4.3 0.01 0.29 0.29 87 1013.7
20260504213211 54 215 1.7 4.3 0.01 0.29 0.29 87 1013.7
20260504212706 54 185 1.7 2.6 0.01 0.29 0.29 87 1013.7
20260504212208 54 306 0.9 5.2 0.01 0.29 0.29 86 1013.7
20260504211717 54 215 0.0 7.0 0.00 0.28 0.28 86 1013.7
20260504211216 54 227 1.7 8.7 0.00 0.28 0.28 86 1013.6
20260504210712 54 213 4.3 8.7 0.00 0.28 0.28 86 1013.6
20260504210225 55 216 4.3 7.0 0.00 0.28 0.28 85 1013.7
20260504205713 55 233 3.5 5.2 0.00 0.28 0.28 85 1013.7
20260504205205 55 212 2.6 6.1 0.00 0.28 0.28 86 1013.7
20260504204715 55 255 2.6 7.0 0.00 0.28 0.28 86 1013.6
20260504203205 55 201 3.5 7.8 0.00 0.28 0.28 87 1013.6
20260504202210 55 205 2.6 7.8 0.00 0.28 0.28 86 1013.5
20260504201713 55 210 3.5 7.8 0.00 0.28 0.28 86 1013.4
20260504201206 55 226 3.5 7.8 0.00 0.28 0.28 86 1013.3
20260504200729 55 227 3.5 7.8 0.00 0.28 0.28 86 1013.3
20260504195712 55 220 3.5 7.8 0.00 0.28 0.28 86 1013.3
20260504195206 55 213 5.2 8.7 0.01 0.28 0.28 86 1013.2
20260504194706 55 212 3.5 14.8 0.02 0.28 0.28 86 1013.2
20260504194211 55 248 4.3 14.8 0.03 0.28 0.28 86 1013.1
20260504193716 55 225 7.0 14.8 0.05 0.28 0.28 87 1013.0
20260504193213 55 281 7.0 14.8 0.05 0.28 0.28 86 1013.0
20260504192719 56 209 5.2 16.5 0.05 0.28 0.28 86 1012.8
20260504192216 56 232 7.8 17.4 0.05 0.28 0.28 87 1012.7
20260504191705 56 230 8.7 17.4 0.05 0.28 0.28 87 1012.5
20260504191215 56 237 8.7 17.4 0.06 0.28 0.28 87 1012.5
20260504190713 56 267 7.8 18.2 0.08 0.28 0.28 88 1012.3
20260504185712 56 215 7.8 13.0 0.12 0.28 0.28 87 1012.3
20260504185210 56 292 4.3 7.8 0.12 0.28 0.28 89 1012.2
20260504184713 57 267 4.3 8.7 0.11 0.26 0.26 90 1012.0
20260504184218 57 278 1.7 11.3 0.10 0.24 0.24 91 1011.9
20260504183714 57 230 3.5 11.3 0.09 0.24 0.24 91 1011.6
20260504183212 57 243 3.5 8.7 0.10 0.24 0.24 91 1011.5
20260504182718 57 262 5.2 12.2 0.10 0.24 0.24 91 1011.5
20260504182214 57 268 5.2 12.2 0.10 0.24 0.24 91 1011.4
20260504181209 57 255 3.5 9.6 0.10 0.23 0.23 91 1011.6
20260504180719 57 296 3.5 8.7 0.06 0.18 0.18 91 1011.5
20260504180207 57 268 4.3 11.3 0.06 0.17 0.17 91 1011.4
20260504175713 57 258 4.3 11.3 0.06 0.17 0.17 91 1011.5
20260504175214 57 244 6.1 11.3 0.09 0.16 0.16 91 1011.4
20260504174712 57 246 4.3 7.8 0.12 0.15 0.15 91 1011.3
20260504174216 57 229 3.5 8.7 0.13 0.14 0.14 91 1011.2
20260504173705 57 255 3.5 11.3 0.13 0.13 0.13 91 1011.3
20260504173218 56 248 4.3 11.3 0.13 0.13 0.13 91 1011.2
20260504172706 56 264 5.2 12.2 0.13 0.13 0.13 91 1011.2
20260504172207 56 243 6.1 12.2 0.12 0.13 0.13 91 1011.2
20260504171718 56 271 6.1 13.9 0.12 0.13 0.13 91 1011.1
20260504171219 56 271 7.0 13.9 0.12 0.13 0.13 91 1011.1
20260504170715 56 241 7.8 14.8 0.11 0.12 0.12 91 1011.0
20260504170209 56 232 6.1 15.6 0.11 0.12 0.12 90 1011.0
20260504160211 60 49 7.0 14.8 0.00 0.01 0.01 86 1009.5
20260504150707 62 59 7.8 16.5 0.00 0.01 0.01 79 1009.8
20260504150207 63 16 7.8 16.5 0.00 0.01 0.01 79 1009.8
20260504141214 65 5 10.4 16.5 0.00 0.01 0.01 77 1009.2
20260504130706 65 2 8.7 17.4 0.00 0.01 0.01 75 1010.3
20260504130219 65 4 8.7 16.5 0.00 0.01 0.01 76 1010.4
20260504120212 66 358 8.7 13.9 0.00 0.01 0.01 75 1011.1
20260504110709 65 9 6.1 10.4 0.01 0.01 0.01 78 1011.6
20260504110214 65 4 6.1 7.8 0.01 0.01 0.01 81 1011.7
20260504100216 63 59 1.7 5.2 0.00 0.00 0.00 82 1012.3
20260504081715 62 188 1.7 4.3 0.00 0.00 0.00 80 1012.6
20260504081216 62 209 0.9 4.3 0.00 0.00 0.00 80 1012.7
20260504080714 62 229 0.9 4.3 0.00 0.00 0.00 81 1012.7
20260504070217 60 0 0.0 2.6 0.00 0.00 0.00 87 1012.3
20260504060210 58 0 0.0 0.9 0.00 0.00 0.00 91 1011.6
20260504050711 56 165 0.9 2.6 0.00 0.00 0.00 92 1011.4
20260504050217 56 178 0.9 1.7 0.00 0.00 0.00 92 1011.5
20260504045717 56 210 0.9 2.6 0.00 0.00 0.00 92 1011.3